Regional Weather Roundup
Issued by NWS Cleveland, OH

Home | Current Version | Previous Version | Graphics & Text | Print | Product List | Glossary On
Versions: 1 2 3 4 5 6 7 8 9 10 11 12 13 14 15 16 17 18 19 20 21 22 23 24 25 26 27 28 29 30 31 32 33 34 35 36 37 38 39 40 41 42 43 44 45 46 47 48 49 50
000
ASUS41 KCLE 232012
RWRCLE
OHIO REGIONAL WEATHER ROUNDUP
NATIONAL WEATHER SERVICE WILMINGTON, OH
400 PM EDT THU MAR 23 2017

NOTE: "FAIR" INDICATES FEW OR NO CLOUDS BELOW 12,000 FEET WITH NO
SIGNIFICANT WEATHER AND/OR OBSTRUCTIONS TO VISIBILITY.

OHZ001>008-015>018-024>027-034-035-043-044-232100-
   NORTHWEST OHIO

CITY           SKY/WX    TMP DP  RH WIND       PRES   REMARKS
DEFIANCE       FAIR      45  15  30 SE13      30.34F
FINDLAY        FAIR      51  11  20 S14G20    30.34F
TOLEDO EXPRESS FAIR      47   7  19 S10       30.35F
TOLEDO EXEC    FAIR      45  25  45 NE8       30.37F
LIMA           FAIR      50  13  22 SE14      30.33F
$$

OHZ009>014-019>023-028>033-038-089-232100-
   NORTHEAST OHIO

CITY           SKY/WX    TMP DP  RH WIND       PRES   REMARKS
CLE-HOPKINS    FAIR      49   4  16 S8        30.42F
CLE-LAKEFRONT  FAIR      38  31  76 NE14      30.40F
CUY CO. ARPT   MOSUNNY   48  12  23 S9        30.42F
LORAIN-ELYRIA  FAIR      47  12  24 S15       30.40F
ASHTABULA      FAIR      43  13  29 SE5       30.43F
AKRON-CANTON   FAIR      48  12  23 SE8G18    30.39F
WOOSTER        FAIR      46  16  30 S14G20    30.39F
MANSFIELD      FAIR      48  10  21 SE14      30.36F
YOUNGSTOWN     FAIR      45   7  21 S9        30.41F
$$

OHZ042-051>053-060>062-070>072-077>081-232100-
  SOUTHWEST OHIO

CITY           SKY/WX    TMP DP  RH WIND       PRES   REMARKS
CINC-COVINGTON PTSUNNY   57  24  28 SE10      30.30F
CINC-LUNKEN    FAIR      58  27  30 S9        30.33F
HAMILTON       FAIR      56  21  25 VRB3      30.33F
DAYTON         FAIR      49  22  34 SE9       30.33F
WRIGHT-PAT AFB FAIR      52  21  29 SE9       30.33F
DAYTON GENERAL FAIR      52  22  30 SE6       30.31F
WILMINGTON     FAIR      52  23  32 SE9       30.32F
$$

OHZ036-037-039>041-045>050-054>059-063>069-073>076-082>088-232100-
  CENTRAL AND SOUTHEAST OHIO

CITY           SKY/WX    TMP DP  RH WIND       PRES   REMARKS
COLUMBUS       PTSUNNY   52  10  18 S7        30.36F
OSU AIRPORT    FAIR      52  15  23 SE13      30.36F
BOLTON FIELD   SUNNY     52  19  28 E10       30.36F
RICKENBACK AFB FAIR      52  15  23 S9        30.36F
NEWARK         FAIR      53  10  18 E7        30.35F
MARION         FAIR      51   8  17 S13       30.35F
LANCASTER      FAIR      56  14  19 SE9       30.36F
ZANESVILLE     FAIR      53   6  15 SE10      30.37F
NEW PHILLY     FAIR      49   8  19 E6        30.40F
$$




USA.gov is the U.S. government's official web portal to all federal, state and local government web resources and services.